When you browse on this site, cookies collect data to enhance your experience and personalize the content and advertising you see.
Visit our Privacy Policy to learn more. By continuing to use the site, you agree to this use of cookies and data.
  • In Hungary
  • List of Countries
  • For 7 days
  • Water Temperature
  • Satellite Maps
  • Weather Map
  • News
  • Weather Widgets
  • user-avatar
    Login

    Hourly Weather Koeln

    Today, 21 April, Sunday

    Time Temperature Precipitation Wind Pressure Humidity
    00:00 +15°C° 0 mm 2 mps 764 mmHg 66%
    01:00 +14°C° 0 mm 2 mps 763 mmHg 68%
    02:00 +14°C° 0 mm 1 mps 763 mmHg 70%
    03:00 +13°C° 0 mm 1 mps 763 mmHg 72%
    04:00 +13°C° 0 mm 1 mps 762 mmHg 70%
    05:00 +14°C° 0 mm 1 mps 762 mmHg 69%
    06:00 +14°C° 0 mm 1 mps 762 mmHg 67%
    07:00 +16°C° 0 mm 1 mps 762 mmHg 60%
    08:00 +19°C° 0 mm 1 mps 761 mmHg 52%
    09:00 +20°C° 0 mm 2 mps 761 mmHg 45%
    10:00 +23°C° 0 mm 2 mps 761 mmHg 40%
    11:00 +24°C° 0 mm 2 mps 760 mmHg 35%
    12:00 +25°C° 0 mm 2 mps 760 mmHg 30%
    13:00 +25°C° 0 mm 1 mps 759 mmHg 29%
    14:00 +26°C° 0 mm 1 mps 758 mmHg 28%
    15:00 +26°C° 0 mm 1 mps 758 mmHg 28%
    16:00 +24°C° 0 mm 1 mps 758 mmHg 33%
    17:00 +23°C° 0 mm 1 mps 757 mmHg 38%
    18:00 +21°C° 0 mm 1 mps 757 mmHg 44%
    19:00 +19°C° 0 mm 2 mps 757 mmHg 48%
    20:00 +18°C° 0 mm 2 mps 757 mmHg 52%
    21:00 +16°C° 0 mm 2 mps 757 mmHg 57%
    22:00 +16°C° 0 mm 2 mps 757 mmHg 60%
    23:00 +15°C° 0 mm 2 mps 757 mmHg 63%

    Tomorrow, 22 April, Monday

    Time Temperature Precipitation Wind Pressure Humidity
    00:00 +14°C° 0 mm 2 mps 756 mmHg 66%
    01:00 +14°C° 0 mm 2 mps 756 mmHg 67%
    02:00 +13°C° 0 mm 2 mps 755 mmHg 69%
    03:00 +13°C° 0 mm 2 mps 755 mmHg 71%
    04:00 +13°C° 0 mm 2 mps 755 mmHg 69%
    05:00 +13°C° 0 mm 3 mps 754 mmHg 67%
    06:00 +13°C° 0 mm 3 mps 754 mmHg 66%
    07:00 +16°C° 0 mm 3 mps 754 mmHg 59%
    08:00 +18°C° 0 mm 4 mps 753 mmHg 52%
    09:00 +20°C° 0 mm 4 mps 753 mmHg 45%
    10:00 +21°C° 0 mm 4 mps 753 mmHg 41%
    11:00 +22°C° 0 mm 4 mps 752 mmHg 38%
    12:00 +23°C° 0 mm 5 mps 751 mmHg 34%
    13:00 +23°C° 0 mm 5 mps 751 mmHg 35%
    14:00 +25°C° 0 mm 4 mps 750 mmHg 36%
    15:00 +25°C° 0 mm 4 mps 750 mmHg 37%
    16:00 +22°C° 0 mm 4 mps 749 mmHg 42%
    17:00 +21°C° 0 mm 4 mps 749 mmHg 47%
    18:00 +20°C° 0 mm 4 mps 748 mmHg 52%
    19:00 +19°C° 0 mm 5 mps 749 mmHg 52%
    20:00 +16°C° 0 mm 5 mps 749 mmHg 53%
    21:00 +15°C° 0 mm 5 mps 749 mmHg 53%
    22:00 +14°C° 0 mm 5 mps 749 mmHg 52%
    23:00 +13°C° 0 mm 5 mps 748 mmHg 50%

    Day after tomorrow, 23 April, Tuesday

    Time Temperature Precipitation Wind Pressure Humidity
    00:00 +13°C° 0 mm 5 mps 748 mmHg 49%
    01:00 +12°C° 0 mm 4 mps 748 mmHg 51%
    02:00 +11°C° 0 mm 4 mps 747 mmHg 53%
    03:00 +11°C° 0 mm 4 mps 747 mmHg 54%
    04:00 +11°C° 0 mm 4 mps 747 mmHg 57%
    05:00 +11°C° 0 mm 4 mps 746 mmHg 60%
    06:00 +11°C° 0 mm 4 mps 746 mmHg 62%
    07:00 +13°C° 0 mm 4 mps 746 mmHg 60%
    08:00 +14°C° 0 mm 4 mps 745 mmHg 58%
    09:00 +16°C° 0 mm 5 mps 745 mmHg 56%
    10:00 +17°C° 0 mm 5 mps 744 mmHg 53%
    11:00 +20°C° 0 mm 5 mps 744 mmHg 51%
    12:00 +21°C° 0 mm 5 mps 744 mmHg 48%
    13:00 +21°C° 0 mm 5 mps 743 mmHg 48%
    14:00 +22°C° 0 mm 5 mps 743 mmHg 48%
    15:00 +22°C° 0 mm 5 mps 743 mmHg 49%
    16:00 +21°C° 0 mm 4 mps 742 mmHg 53%
    17:00 +20°C° 0 mm 4 mps 742 mmHg 58%
    18:00 +18°C° 0 mm 4 mps 742 mmHg 62%
    19:00 +17°C° 0 mm 4 mps 742 mmHg 66%
    20:00 +16°C° 0 mm 3 mps 743 mmHg 69%
    21:00 +14°C° 0 mm 3 mps 743 mmHg 72%
    22:00 +14°C° 0 mm 3 mps 743 mmHg 75%
    23:00 +13°C° 0 mm 3 mps 743 mmHg 78%

    24 April, Wednesday

    Time Temperature Precipitation Wind Pressure Humidity
    00:00 +13°C° 0 mm 3 mps 743 mmHg 81%
    01:00 +13°C° 0 mm 3 mps 743 mmHg 83%
    02:00 +13°C° 0 mm 3 mps 743 mmHg 85%
    03:00 +13°C° 0 mm 3 mps 743 mmHg 87%
    04:00 +14°C° 0 mm 3 mps 743 mmHg 85%
    05:00 +14°C° 0 mm 3 mps 744 mmHg 82%
    06:00 +14°C° 0 mm 4 mps 744 mmHg 80%
    07:00 +17°C° 0 mm 4 mps 745 mmHg 74%
    08:00 +17°C° 0 mm 5 mps 745 mmHg 69%
    09:00 +19°C° 0 mm 5 mps 746 mmHg 64%
    10:00 +19°C° 0.1 mm 5 mps 746 mmHg 61%
    11:00 +19°C° 0.1 mm 4 mps 747 mmHg 58%
    12:00 +19°C° 0.1 mm 4 mps 747 mmHg 56%
    13:00 +19°C° 0 mm 4 mps 748 mmHg 56%
    14:00 +19°C° 0 mm 4 mps 748 mmHg 57%
    15:00 +18°C° 0 mm 3 mps 749 mmHg 57%
    16:00 +18°C° 0.1 mm 3 mps 749 mmHg 61%
    17:00 +17°C° 0.1 mm 3 mps 749 mmHg 65%
    18:00 +16°C° 0.1 mm 3 mps 749 mmHg 69%
    19:00 +14°C° 0 mm 3 mps 750 mmHg 73%
    20:00 +13°C° 0 mm 3 mps 750 mmHg 77%
    21:00 +12°C° 0 mm 3 mps 750 mmHg 80%
    22:00 +12°C° 0 mm 3 mps 750 mmHg 81%
    23:00 +11°C° 0 mm 3 mps 750 mmHg 82%

    25 April, Thursday

    Time Temperature Precipitation Wind Pressure Humidity
    00:00 +11°C° 0 mm 3 mps 750 mmHg 82%
    01:00 +11°C° 0 mm 4 mps 750 mmHg 76%
    02:00 +12°C° 0 mm 4 mps 750 mmHg 69%
    03:00 +12°C° 0 mm 5 mps 750 mmHg 63%
    04:00 +12°C° 0 mm 5 mps 750 mmHg 61%
    05:00 +13°C° 0 mm 5 mps 750 mmHg 58%
    06:00 +13°C° 0 mm 6 mps 750 mmHg 56%
    07:00 +15°C° 0 mm 6 mps 750 mmHg 53%
    08:00 +16°C° 0 mm 7 mps 750 mmHg 49%
    09:00 +18°C° 0 mm 8 mps 750 mmHg 46%
    10:00 +18°C° 0 mm 8 mps 750 mmHg 47%
    11:00 +18°C° 0 mm 8 mps 750 mmHg 48%
    12:00 +18°C° 0 mm 8 mps 750 mmHg 49%
    13:00 +17°C° 0.1 mm 7 mps 750 mmHg 53%
    14:00 +17°C° 0.1 mm 6 mps 750 mmHg 57%
    15:00 +16°C° 0.1 mm 6 mps 751 mmHg 61%
    16:00 +15°C° 0.7 mm 5 mps 751 mmHg 66%
    17:00 +13°C° 0.7 mm 4 mps 751 mmHg 72%
    18:00 +12°C° 0.7 mm 3 mps 752 mmHg 78%
    19:00 +11°C° 0 mm 3 mps 752 mmHg 77%
    20:00 +11°C° 0 mm 3 mps 753 mmHg 76%
    21:00 +10°C° 0 mm 3 mps 753 mmHg 76%
    22:00 +10°C° 0 mm 3 mps 753 mmHg 76%
    23:00 +10°C° 0 mm 3 mps 753 mmHg 75%

    26 April, Friday

    Time Temperature Precipitation Wind Pressure Humidity
    00:00 +10°C° 0 mm 3 mps 753 mmHg 75%
    01:00 +9°C° 0 mm 3 mps 753 mmHg 76%
    02:00 +9°C° 0 mm 3 mps 753 mmHg 76%
    03:00 +9°C° 0 mm 3 mps 753 mmHg 77%
    04:00 +9°C° 0.1 mm 3 mps 753 mmHg 76%
    05:00 +9°C° 0.1 mm 3 mps 753 mmHg 76%
    06:00 +10°C° 0.1 mm 3 mps 754 mmHg 76%
    07:00 +10°C° 0.2 mm 4 mps 754 mmHg 72%
    08:00 +10°C° 0.2 mm 5 mps 754 mmHg 67%
    09:00 +12°C° 0.2 mm 5 mps 754 mmHg 63%
    10:00 +13°C° 0.3 mm 6 mps 754 mmHg 59%
    11:00 +13°C° 0.3 mm 6 mps 754 mmHg 55%
    12:00 +14°C° 0.3 mm 6 mps 754 mmHg 51%
    13:00 +14°C° 0.3 mm 6 mps 755 mmHg 56%
    14:00 +13°C° 0.3 mm 6 mps 755 mmHg 60%
    15:00 +11°C° 0.3 mm 6 mps 756 mmHg 65%
    16:00 +11°C° 0.2 mm 6 mps 756 mmHg 66%
    17:00 +12°C° 0.2 mm 5 mps 757 mmHg 67%
    18:00 +11°C° 0.2 mm 4 mps 758 mmHg 68%
    19:00 +11°C° 0 mm 4 mps 758 mmHg 70%
    20:00 +10°C° 0 mm 3 mps 759 mmHg 72%
    21:00 +9°C° 0 mm 3 mps 760 mmHg 74%
    22:00 +9°C° 0 mm 3 mps 760 mmHg 75%
    23:00 +8°C° 0 mm 3 mps 761 mmHg 77%
    Show more